| time (UTC) | temp C | wind direction | speed KPH | gust KPH | rain 1hr cm | rain 24hr cm | rain mn cm | humidity % | barometer mb |
| 20260510142016 | 2 | 315 | 6.4 | 14.5 | 0.00 | 0.03 | 0.03 | 83 | 1018.0 |
| 20260510141036 | 1 | 315 | 11.3 | 20.9 | 0.00 | 0.03 | 0.03 | 84 | 1017.8 |
| 20260510140016 | 1 | 315 | 6.4 | 14.5 | 0.00 | 0.03 | 0.03 | 87 | 1017.7 |
| 20260510135016 | 1 | 315 | 4.8 | 14.5 | 0.00 | 0.03 | 0.03 | 88 | 1017.6 |
| 20260510134016 | 1 | 315 | 6.4 | 16.1 | 0.00 | 0.03 | 0.03 | 87 | 1017.7 |
| 20260510133016 | 1 | 338 | 4.8 | 16.1 | 0.00 | 0.03 | 0.03 | 88 | 1017.7 |
| 20260510132036 | 1 | 338 | 4.8 | 9.7 | 0.00 | 0.03 | 0.03 | 88 | 1017.5 |
| 20260510131016 | 1 | 315 | 4.8 | 14.5 | 0.00 | 0.03 | 0.03 | 88 | 1017.6 |
| 20260510130016 | 1 | 315 | 4.8 | 12.9 | 0.00 | 0.03 | 0.03 | 89 | 1017.5 |
| 20260510125016 | 1 | 315 | 6.4 | 16.1 | 0.00 | 0.03 | 0.03 | 89 | 1017.2 |
| 20260510124016 | 1 | 315 | 3.2 | 9.7 | 0.00 | 0.03 | 0.03 | 91 | 1017.2 |
| 20260510123016 | 1 | 315 | 6.4 | 14.5 | 0.00 | 0.03 | 0.03 | 91 | 1016.9 |
| 20260510122016 | 1 | 293 | 8.0 | 16.1 | 0.00 | 0.03 | 0.03 | 91 | 1016.8 |
| 20260510121016 | 1 | 293 | 6.4 | 11.3 | 0.00 | 0.03 | 0.03 | 92 | 1016.7 |
| 20260510120036 | 1 | 293 | 4.8 | 9.7 | 0.00 | 0.03 | 0.03 | 92 | 1016.5 |
| 20260510115016 | 1 | 293 | 6.4 | 11.3 | 0.00 | 0.03 | 0.03 | 93 | 1016.3 |
| 20260510114016 | 1 | 293 | 6.4 | 12.9 | 0.00 | 0.03 | 0.03 | 93 | 1016.2 |
| 20260510113016 | 1 | 293 | 6.4 | 12.9 | 0.00 | 0.03 | 0.03 | 94 | 1016.1 |
| 20260510112016 | 0 | 293 | 6.4 | 12.9 | 0.00 | 0.03 | 0.03 | 94 | 1016.0 |
| 20260510111016 | 0 | 293 | 6.4 | 12.9 | 0.03 | 0.03 | 0.03 | 94 | 1015.7 |
| 20260510110036 | 0 | 293 | 6.4 | 12.9 | 0.03 | 0.03 | 0.03 | 94 | 1015.5 |
| 20260510105016 | 0 | 293 | 4.8 | 8.0 | 0.03 | 0.03 | 0.03 | 94 | 1015.3 |
| 20260510104016 | 0 | 293 | 4.8 | 9.7 | 0.03 | 0.03 | 0.03 | 94 | 1015.3 |
| 20260510103016 | 0 | 293 | 6.4 | 9.7 | 0.03 | 0.03 | 0.03 | 94 | 1015.2 |
| 20260510102016 | 0 | 293 | 4.8 | 9.7 | 0.03 | 0.03 | 0.03 | 94 | 1015.1 |
| 20260510101015 | 0 | 293 | 4.8 | 8.0 | 0.00 | 0.00 | 0.00 | 95 | 1015.1 |
| 20260510100015 | 0 | 293 | 4.8 | 11.3 | 0.00 | 0.00 | 0.00 | 95 | 1015.0 |
| 20260510095016 | 0 | 293 | 4.8 | 9.7 | 0.00 | 0.00 | 0.00 | 95 | 1014.9 |
| 20260510094036 | 0 | 293 | 4.8 | 11.3 | 0.00 | 0.00 | 0.00 | 94 | 1014.7 |
| 20260510093016 | 0 | 293 | 4.8 | 9.7 | 0.00 | 0.00 | 0.00 | 95 | 1014.5 |
| 20260510092016 | 0 | 293 | 4.8 | 9.7 | 0.00 | 0.00 | 0.00 | 94 | 1014.4 |
| 20260510091016 | 0 | 293 | 3.2 | 6.4 | 0.00 | 0.00 | 0.00 | 94 | 1014.2 |
| 20260510090015 | 0 | 293 | 1.6 | 6.4 | 0.00 | 0.00 | 0.00 | 94 | 1014.1 |
| 20260510085015 | 0 | 293 | 3.2 | 8.0 | 0.00 | 0.00 | 0.00 | 93 | 1014.1 |
| 20260510084015 | 0 | 293 | 3.2 | 8.0 | 0.00 | 0.00 | 0.00 | 93 | 1014.0 |
| 20260510083015 | 1 | 293 | 6.4 | 9.7 | 0.00 | 0.00 | 0.00 | 93 | 1013.9 |
| 20260510082015 | 1 | 315 | 1.6 | 4.8 | 0.00 | 0.00 | 0.00 | 93 | 1013.7 |
| 20260510081010 | 1 | 293 | 1.6 | 8.0 | 0.00 | 0.00 | 0.00 | 93 | 1013.8 |
| 20260510080017 | 1 | 338 | 1.6 | 4.8 | 0.00 | 0.00 | 0.00 | 93 | 1013.7 |
| 20260510075017 | 1 | 315 | 1.6 | 4.8 | 0.00 | 0.00 | 0.00 | 93 | 1013.7 |
| 20260510074017 | 1 | 0 | 3.2 | 6.4 | 0.00 | 0.00 | 0.00 | 92 | 1013.6 |
| 20260510073017 | 1 | 338 | 1.6 | 3.2 | 0.00 | 0.00 | 0.00 | 91 | 1013.4 |
| 20260510072017 | 1 | 315 | 3.2 | 6.4 | 0.00 | 0.00 | 0.00 | 91 | 1013.4 |
| 20260510071037 | 1 | 315 | 1.6 | 9.7 | 0.00 | 0.00 | 0.00 | 91 | 1013.5 |
| 20260510070057 | 1 | 315 | 1.6 | 4.8 | 0.00 | 0.00 | 0.00 | 91 | 1013.5 |
| 20260510065037 | 1 | 315 | 3.2 | 8.0 | 0.00 | 0.00 | 0.00 | 91 | 1013.5 |
| 20260510064017 | 1 | 315 | 1.6 | 6.4 | 0.00 | 0.00 | 0.00 | 90 | 1013.3 |
| 20260510063017 | 1 | 315 | 4.8 | 9.7 | 0.00 | 0.00 | 0.00 | 89 | 1013.3 |
| 20260510062037 | 2 | 315 | 4.8 | 9.7 | 0.00 | 0.00 | 0.00 | 88 | 1013.2 |
| 20260510061017 | 2 | 315 | 3.2 | 9.7 | 0.00 | 0.00 | 0.00 | 87 | 1013.1 |
| 20260510060017 | 2 | 315 | 3.2 | 9.7 | 0.00 | 0.00 | 0.00 | 85 | 1013.1 |
| 20260510055017 | 2 | 315 | 4.8 | 11.3 | 0.00 | 0.00 | 0.00 | 85 | 1012.8 |
| 20260510054017 | 2 | 315 | 1.6 | 6.4 | 0.00 | 0.00 | 0.00 | 85 | 1012.8 |
| 20260510053017 | 2 | 315 | 1.6 | 6.4 | 0.00 | 0.00 | 0.00 | 85 | 1012.7 |
| 20260510052037 | 2 | 293 | 4.8 | 9.7 | 0.00 | 0.00 | 0.00 | 84 | 1012.7 |
| 20260510051017 | 2 | 315 | 3.2 | 8.0 | 0.00 | 0.00 | 0.00 | 84 | 1012.6 |
| 20260510050017 | 2 | 293 | 1.6 | 6.4 | 0.00 | 0.00 | 0.00 | 83 | 1012.5 |
| 20260510045015 | 2 | 315 | 1.6 | 8.0 | 0.00 | 0.00 | 0.00 | 84 | 1012.4 |
| 20260510044015 | 2 | 293 | 4.8 | 9.7 | 0.00 | 0.00 | 0.00 | 83 | 1012.6 |
| 20260510043015 | 2 | 293 | 6.4 | 14.5 | 0.00 | 0.00 | 0.00 | 85 | 1012.5 |
| 20260510042017 | 2 | 293 | 3.2 | 6.4 | 0.00 | 0.00 | 0.00 | 84 | 1012.4 |
| 20260510041017 | 2 | 293 | 4.8 | 8.0 | 0.00 | 0.00 | 0.00 | 84 | 1012.4 |
| 20260510040017 | 2 | 293 | 3.2 | 6.4 | 0.00 | 0.00 | 0.00 | 83 | 1012.3 |
| 20260510035017 | 2 | 293 | 1.6 | 3.2 | 0.00 | 0.00 | 0.00 | 83 | 1012.2 |
| 20260510034058 | 2 | 0.0 | 3.2 | 0.00 | 0.00 | 0.00 | 82 | 1012.0 | |
| 20260510033017 | 2 | 293 | 1.6 | 6.4 | 0.00 | 0.00 | 0.00 | 82 | 1012.2 |
| 20260510032018 | 2 | 0 | 3.2 | 9.7 | 0.00 | 0.00 | 0.00 | 81 | 1012.2 |
| 20260510031017 | 2 | 45 | 4.8 | 9.7 | 0.00 | 0.00 | 0.00 | 81 | 1012.0 |
| 20260510030037 | 3 | 23 | 3.2 | 9.7 | 0.00 | 0.00 | 0.00 | 81 | 1012.0 |
| 20260510025017 | 3 | 338 | 3.2 | 8.0 | 0.00 | 0.00 | 0.00 | 81 | 1012.0 |
| 20260510024017 | 2 | 23 | 1.6 | 4.8 | 0.00 | 0.00 | 0.00 | 83 | 1011.9 |
| 20260510023017 | 2 | 315 | 1.6 | 3.2 | 0.00 | 0.00 | 0.00 | 82 | 1011.9 |
| 20260510022017 | 3 | 293 | 1.6 | 4.8 | 0.00 | 0.00 | 0.00 | 82 | 1011.7 |
| 20260510021017 | 3 | 293 | 3.2 | 4.8 | 0.00 | 0.00 | 0.00 | 82 | 1011.7 |
| 20260510020017 | 3 | 293 | 1.6 | 4.8 | 0.00 | 0.00 | 0.00 | 82 | 1011.5 |
| 20260510015017 | 3 | 293 | 6.4 | 12.9 | 0.00 | 0.00 | 0.00 | 81 | 1011.4 |
| 20260510014017 | 3 | 293 | 11.3 | 20.9 | 0.00 | 0.00 | 0.00 | 80 | 1011.2 |
| 20260510013017 | 5 | 315 | 11.3 | 27.4 | 0.00 | 0.00 | 0.00 | 70 | 1011.3 |
| 20260510012037 | 5 | 293 | 8.0 | 12.9 | 0.00 | 0.00 | 0.00 | 59 | 1010.7 |
| 20260510011017 | 5 | 293 | 9.7 | 16.1 | 0.00 | 0.00 | 0.00 | 57 | 1010.5 |
| 20260510010037 | 6 | 293 | 11.3 | 19.3 | 0.00 | 0.00 | 0.00 | 57 | 1010.4 |
| 20260510005017 | 6 | 293 | 12.9 | 20.9 | 0.00 | 0.00 | 0.00 | 57 | 1010.3 |
| 20260510004017 | 6 | 315 | 11.3 | 20.9 | 0.00 | 0.00 | 0.00 | 58 | 1010.3 |
| 20260510003017 | 6 | 315 | 12.9 | 24.1 | 0.00 | 0.00 | 0.00 | 57 | 1010.3 |
| 20260510002017 | 6 | 293 | 16.1 | 32.2 | 0.00 | 0.00 | 0.00 | 55 | 1010.3 |
| 20260510001017 | 6 | 293 | 12.9 | 20.9 | 0.00 | 0.00 | 0.00 | 56 | 1010.2 |
| 20260510000017 | 6 | 315 | 17.7 | 32.2 | 0.00 | 0.00 | 0.00 | 57 | 1010.2 |
| 20260509235017 | 6 | 315 | 16.1 | 29.0 | 0.00 | 0.00 | 0.00 | 56 | 1010.1 |
| 20260509234017 | 6 | 315 | 16.1 | 30.6 | 0.00 | 0.00 | 0.00 | 55 | 1010.0 |
| 20260509233037 | 6 | 293 | 16.1 | 30.6 | 0.00 | 0.00 | 0.00 | 55 | 1009.8 |
| 20260509232017 | 6 | 293 | 14.5 | 25.7 | 0.00 | 0.00 | 0.00 | 54 | 1009.8 |
| 20260509231017 | 7 | 315 | 12.9 | 27.4 | 0.00 | 0.00 | 0.00 | 55 | 1009.7 |
| 20260509230017 | 7 | 315 | 14.5 | 27.4 | 0.00 | 0.00 | 0.00 | 55 | 1009.7 |
| 20260509225037 | 7 | 293 | 12.9 | 20.9 | 0.00 | 0.00 | 0.00 | 55 | 1009.7 |
| 20260509224017 | 6 | 293 | 14.5 | 29.0 | 0.00 | 0.00 | 0.00 | 54 | 1009.6 |
| 20260509223017 | 6 | 293 | 12.9 | 24.1 | 0.00 | 0.00 | 0.00 | 54 | 1009.5 |
| 20260509222017 | 6 | 293 | 14.5 | 25.7 | 0.00 | 0.00 | 0.00 | 55 | 1009.4 |
| 20260509221016 | 7 | 293 | 16.1 | 30.6 | 0.00 | 0.00 | 0.00 | 54 | 1009.4 |
| 20260509220037 | 6 | 315 | 14.5 | 27.4 | 0.00 | 0.00 | 0.00 | 54 | 1009.2 |
| 20260509215016 | 6 | 315 | 16.1 | 25.7 | 0.00 | 0.00 | 0.00 | 57 | 1009.2 |
| 20260509214016 | 7 | 315 | 9.7 | 24.1 | 0.00 | 0.00 | 0.00 | 57 | 1009.1 |
| 20260509213016 | 7 | 293 | 14.5 | 27.4 | 0.00 | 0.00 | 0.00 | 56 | 1008.9 |
| 20260509212016 | 7 | 315 | 16.1 | 29.0 | 0.00 | 0.00 | 0.00 | 55 | 1008.9 |
| 20260509211017 | 6 | 315 | 16.1 | 27.4 | 0.00 | 0.00 | 0.00 | 57 | 1008.9 |
| 20260509210016 | 6 | 315 | 14.5 | 27.4 | 0.00 | 0.00 | 0.00 | 56 | 1008.8 |
| 20260509205016 | 6 | 315 | 16.1 | 33.8 | 0.00 | 0.00 | 0.00 | 55 | 1008.7 |
| 20260509204016 | 6 | 315 | 17.7 | 29.0 | 0.00 | 0.00 | 0.00 | 57 | 1008.6 |
| 20260509203016 | 6 | 315 | 16.1 | 33.8 | 0.00 | 0.00 | 0.00 | 56 | 1008.4 |
| 20260509202016 | 7 | 293 | 12.9 | 25.7 | 0.00 | 0.00 | 0.00 | 56 | 1008.4 |
| 20260509201016 | 6 | 293 | 14.5 | 27.4 | 0.00 | 0.00 | 0.00 | 58 | 1008.3 |
| 20260509200036 | 6 | 315 | 8.0 | 17.7 | 0.00 | 0.00 | 0.00 | 62 | 1008.3 |
| 20260509195036 | 6 | 315 | 6.4 | 14.5 | 0.00 | 0.00 | 0.00 | 61 | 1008.2 |
| 20260509194036 | 6 | 315 | 12.9 | 29.0 | 0.00 | 0.00 | 0.00 | 61 | 1008.3 |
| 20260509193016 | 5 | 293 | 14.5 | 27.4 | 0.00 | 0.00 | 0.00 | 61 | 1008.2 |
| 20260509192017 | 5 | 315 | 16.1 | 25.7 | 0.00 | 0.00 | 0.00 | 61 | 1008.2 |
| 20260509191016 | 5 | 315 | 20.9 | 35.4 | 0.00 | 0.00 | 0.00 | 61 | 1008.0 |
| 20260509190037 | 5 | 315 | 14.5 | 27.4 | 0.00 | 0.00 | 0.00 | 59 | 1007.9 |
| 20260509185016 | 6 | 293 | 16.1 | 29.0 | 0.00 | 0.00 | 0.00 | 57 | 1007.6 |
| 20260509184016 | 6 | 315 | 11.3 | 20.9 | 0.00 | 0.00 | 0.00 | 58 | 1007.6 |
| 20260509183016 | 5 | 315 | 12.9 | 22.5 | 0.00 | 0.00 | 0.00 | 64 | 1007.6 |
| 20260509182016 | 5 | 293 | 11.3 | 19.3 | 0.00 | 0.00 | 0.00 | 63 | 1007.6 |
| 20260509181016 | 5 | 293 | 9.7 | 19.3 | 0.00 | 0.00 | 0.00 | 64 | 1007.7 |
| 20260509180016 | 4 | 315 | 14.5 | 22.5 | 0.00 | 0.00 | 0.00 | 62 | 1007.5 |
| 20260509175016 | 4 | 315 | 8.0 | 20.9 | 0.00 | 0.00 | 0.00 | 64 | 1007.5 |
| 20260509174016 | 4 | 315 | 14.5 | 29.0 | 0.00 | 0.00 | 0.00 | 61 | 1007.5 |
| 20260509173016 | 4 | 338 | 11.3 | 27.4 | 0.00 | 0.00 | 0.00 | 61 | 1007.4 |
| 20260509172016 | 5 | 315 | 9.7 | 19.3 | 0.00 | 0.00 | 0.00 | 61 | 1007.2 |
| 20260509171016 | 5 | 315 | 11.3 | 27.4 | 0.00 | 0.00 | 0.00 | 59 | 1007.0 |
| 20260509170016 | 4 | 293 | 16.1 | 29.0 | 0.00 | 0.00 | 0.00 | 59 | 1006.9 |
| 20260509165016 | 4 | 315 | 12.9 | 24.1 | 0.00 | 0.00 | 0.00 | 63 | 1006.8 |
| 20260509164016 | 4 | 315 | 14.5 | 32.2 | 0.00 | 0.00 | 0.00 | 62 | 1006.7 |
| 20260509163016 | 4 | 315 | 12.9 | 25.7 | 0.00 | 0.00 | 0.00 | 61 | 1006.5 |
| 20260509162016 | 4 | 315 | 11.3 | 19.3 | 0.00 | 0.00 | 0.00 | 60 | 1006.4 |
| 20260509161016 | 5 | 315 | 11.3 | 22.5 | 0.00 | 0.00 | 0.00 | 62 | 1006.4 |
| 20260509160016 | 5 | 338 | 8.0 | 17.7 | 0.00 | 0.00 | 0.00 | 62 | 1006.4 |
| 20260509155016 | 4 | 315 | 11.3 | 25.7 | 0.00 | 0.00 | 0.00 | 62 | 1006.1 |
| 20260509154016 | 4 | 315 | 11.3 | 25.7 | 0.00 | 0.00 | 0.00 | 63 | 1006.0 |
| 20260509153016 | 4 | 315 | 11.3 | 24.1 | 0.00 | 0.00 | 0.00 | 66 | 1005.9 |
| 20260509152016 | 4 | 338 | 12.9 | 24.1 | 0.00 | 0.00 | 0.00 | 65 | 1005.7 |
| 20260509151016 | 4 | 315 | 11.3 | 19.3 | 0.00 | 0.00 | 0.00 | 66 | 1005.5 |
| 20260509150016 | 4 | 315 | 9.7 | 20.9 | 0.00 | 0.00 | 0.00 | 68 | 1005.5 |
| 20260509145016 | 4 | 338 | 9.7 | 24.1 | 0.00 | 0.00 | 0.00 | 71 | 1005.4 |
| 20260509144015 | 4 | 315 | 8.0 | 22.5 | 0.00 | 0.00 | 0.00 | 69 | 1005.4 |
| 20260509143015 | 3 | 315 | 16.1 | 25.7 | 0.00 | 0.00 | 0.00 | 70 | 1005.1 |